TimeCDT,TemperatureF,Dew PointF,Humidity,Sea Level PressureIn,VisibilityMPH,Wind Direction,Wind SpeedMPH,Gust SpeedMPH,PrecipitationIn,Events,Conditions,WindDirDegrees,DateUTC
12:15 AM,60.1,58.1,93,30.18,10.0,South,4.6,-,N/A,,Scattered Clouds,170,2013-08-17 05:15:00
12:35 AM,59.5,58.1,95,30.18,7.0,South,5.8,-,N/A,,Clear,180,2013-08-17 05:35:00
12:55 AM,59.0,57.4,94,30.17,7.0,South,4.6,-,N/A,,Clear,170,2013-08-17 05:55:00
1:15 AM,59.0,57.7,96,30.17,10.0,South,4.6,-,N/A,,Clear,170,2013-08-17 06:15:00
1:35 AM,58.6,57.4,96,30.17,7.0,South,5.8,-,N/A,,Scattered Clouds,170,2013-08-17 06:35:00
1:55 AM,59.5,58.1,95,30.17,7.0,South,3.5,-,N/A,,Mostly Cloudy,190,2013-08-17 06:55:00
2:15 AM,60.1,58.8,96,30.17,7.0,Calm,Calm,-,N/A,,Overcast,0,2013-08-17 07:15:00
2:35 AM,60.6,59.2,95,30.17,7.0,Calm,Calm,-,N/A,,Overcast,0,2013-08-17 07:35:00
2:55 AM,60.8,59.4,95,30.17,5.0,Calm,Calm,-,N/A,,Overcast,0,2013-08-17 07:55:00
3:15 AM,61.2,59.9,96,30.17,5.0,Calm,Calm,-,N/A,,Overcast,0,2013-08-17 08:15:00
3:35 AM,61.0,59.2,94,30.17,7.0,Calm,Calm,-,N/A,,Overcast,0,2013-08-17 08:35:00
3:55 AM,61.0,59.4,94,30.17,7.0,Calm,Calm,-,N/A,,Overcast,0,2013-08-17 08:55:00
4:15 AM,61.2,59.5,94,30.17,7.0,Calm,Calm,-,N/A,,Overcast,0,2013-08-17 09:15:00
4:35 AM,61.2,59.5,94,30.17,7.0,South,3.5,-,N/A,,Overcast,170,2013-08-17 09:35:00
4:55 AM,61.5,59.4,93,30.17,7.0,South,3.5,-,N/A,,Overcast,180,2013-08-17 09:55:00
5:15 AM,61.3,59.4,93,30.17,7.0,South,3.5,-,N/A,,Overcast,180,2013-08-17 10:15:00
5:35 AM,61.2,59.2,93,30.17,7.0,South,5.8,-,N/A,,Overcast,180,2013-08-17 10:35:00
5:55 AM,61.7,59.4,92,30.16,10.0,South,8.1,-,N/A,,Overcast,170,2013-08-17 10:55:00
6:15 AM,61.9,59.4,91,30.16,10.0,SSE,8.1,-,N/A,,Overcast,160,2013-08-17 11:15:00
6:35 AM,61.5,59.2,92,30.17,10.0,SSE,5.8,-,N/A,,Overcast,160,2013-08-17 11:35:00
6:55 AM,61.7,59.0,91,30.17,10.0,SSE,5.8,-,N/A,,Overcast,160,2013-08-17 11:55:00
7:15 AM,61.7,59.0,91,30.17,10.0,SSE,3.5,-,N/A,,Mostly Cloudy,160,2013-08-17 12:15:00
7:35 AM,61.9,59.5,92,30.17,10.0,SSE,4.6,-,N/A,,Overcast,160,2013-08-17 12:35:00
7:55 AM,62.1,59.5,91,30.18,10.0,SSE,3.5,-,N/A,,Overcast,160,2013-08-17 12:55:00
8:15 AM,63.5,60.8,91,30.18,10.0,Calm,Calm,-,N/A,,Overcast,0,2013-08-17 13:15:00
8:35 AM,64.2,60.3,87,30.18,10.0,South,5.8,-,N/A,,Overcast,180,2013-08-17 13:35:00
8:55 AM,65.5,61.2,86,30.18,10.0,South,3.5,-,N/A,,Overcast,180,2013-08-17 13:55:00
9:15 AM,65.5,60.6,84,30.18,10.0,South,5.8,-,N/A,,Overcast,180,2013-08-17 14:15:00
9:35 AM,67.1,61.3,82,30.18,10.0,South,6.9,-,N/A,,Overcast,190,2013-08-17 14:35:00
9:55 AM,67.5,61.5,81,30.19,10.0,South,8.1,-,N/A,,Overcast,180,2013-08-17 14:55:00
10:15 AM,67.6,61.2,80,30.18,10.0,South,9.2,-,N/A,,Overcast,190,2013-08-17 15:15:00
10:35 AM,70.0,61.3,74,30.18,10.0,South,11.5,-,N/A,,Mostly Cloudy,190,2013-08-17 15:35:00
10:55 AM,71.6,60.8,69,30.18,10.0,South,11.5,-,N/A,,Scattered Clouds,180,2013-08-17 15:55:00
11:15 AM,72.1,60.4,67,30.18,10.0,South,13.8,-,N/A,,Clear,180,2013-08-17 16:15:00
11:35 AM,72.9,59.5,63,30.17,10.0,South,15.0,19.6,N/A,,Scattered Clouds,190,2013-08-17 16:35:00
11:55 AM,72.9,59.0,62,30.17,10.0,South,17.3,-,N/A,,Scattered Clouds,180,2013-08-17 16:55:00
12:15 PM,73.8,61.2,65,30.17,10.0,South,11.5,-,N/A,,Mostly Cloudy,180,2013-08-17 17:15:00
12:35 PM,73.9,59.9,61,30.17,10.0,South,15.0,-,N/A,,Mostly Cloudy,180,2013-08-17 17:35:00
12:55 PM,73.9,61.2,64,30.16,10.0,South,12.7,-,N/A,,Mostly Cloudy,170,2013-08-17 17:55:00
1:15 PM,74.7,61.5,63,30.16,10.0,SSE,15.0,18.4,N/A,,Mostly Cloudy,160,2013-08-17 18:15:00
1:35 PM,74.5,61.5,64,30.16,10.0,South,16.1,20.7,N/A,,Clear,180,2013-08-17 18:35:00
1:55 PM,75.2,61.7,63,30.15,10.0,South,13.8,18.4,N/A,,Clear,190,2013-08-17 18:55:00
2:15 PM,75.4,62.6,64,30.15,10.0,South,15.0,-,N/A,,Clear,170,2013-08-17 19:15:00
2:35 PM,75.4,61.7,62,30.14,10.0,SSE,12.7,19.6,N/A,,Clear,160,2013-08-17 19:35:00
2:55 PM,75.6,61.7,62,30.14,10.0,South,13.8,21.9,N/A,,Clear,170,2013-08-17 19:55:00
3:15 PM,76.3,62.2,62,30.14,10.0,South,12.7,-,N/A,,Scattered Clouds,180,2013-08-17 20:15:00
3:35 PM,76.1,61.5,60,30.13,10.0,SSE,13.8,-,N/A,,Scattered Clouds,160,2013-08-17 20:35:00
3:55 PM,76.3,63.1,64,30.13,10.0,South,12.7,-,N/A,,Scattered Clouds,180,2013-08-17 20:55:00
4:15 PM,76.1,62.1,62,30.13,10.0,South,16.1,-,N/A,,Scattered Clouds,170,2013-08-17 21:15:00
4:35 PM,75.9,62.2,62,30.13,10.0,South,13.8,18.4,N/A,,Scattered Clouds,170,2013-08-17 21:35:00
4:55 PM,76.1,61.3,60,30.12,10.0,South,13.8,18.4,N/A,,Clear,170,2013-08-17 21:55:00
5:15 PM,76.1,60.6,59,30.12,10.0,South,11.5,-,N/A,,Scattered Clouds,170,2013-08-17 22:15:00
5:35 PM,75.7,60.3,59,30.12,10.0,SSE,12.7,-,N/A,,Clear,160,2013-08-17 22:35:00
5:55 PM,75.4,59.4,57,30.12,10.0,South,11.5,17.3,N/A,,Clear,170,2013-08-17 22:55:00
6:15 PM,75.2,59.5,58,30.12,10.0,SSE,11.5,-,N/A,,Clear,160,2013-08-17 23:15:00
6:35 PM,74.7,59.4,59,30.12,10.0,SSE,10.4,-,N/A,,Clear,160,2013-08-17 23:35:00
6:55 PM,73.9,59.7,61,30.12,10.0,SSE,9.2,-,N/A,,Clear,160,2013-08-17 23:55:00
7:15 PM,73.0,60.3,64,30.11,10.0,SSE,9.2,-,N/A,,Clear,160,2013-08-18 00:15:00
7:35 PM,71.6,59.9,66,30.11,10.0,SSE,9.2,-,N/A,,Clear,150,2013-08-18 00:35:00
7:55 PM,69.8,60.3,72,30.11,10.0,SSE,8.1,-,N/A,,Clear,160,2013-08-18 00:55:00
8:15 PM,67.3,60.4,79,30.12,10.0,SSE,5.8,-,N/A,,Clear,160,2013-08-18 01:15:00
8:35 PM,65.3,60.3,84,30.11,10.0,SSE,5.8,-,N/A,,Clear,150,2013-08-18 01:35:00
8:55 PM,64.8,60.1,85,30.12,10.0,SSE,3.5,-,N/A,,Clear,160,2013-08-18 01:55:00
9:15 PM,63.3,59.9,89,30.12,10.0,South,4.6,-,N/A,,Clear,170,2013-08-18 02:15:00
9:35 PM,61.7,59.4,92,30.12,10.0,SSE,4.6,-,N/A,,Clear,160,2013-08-18 02:35:00
9:55 PM,61.2,59.0,93,30.12,10.0,South,5.8,-,N/A,,Clear,170,2013-08-18 02:55:00
10:15 PM,61.3,59.0,92,30.12,10.0,South,5.8,-,N/A,,Clear,170,2013-08-18 03:15:00
10:35 PM,61.2,59.0,93,30.12,10.0,South,6.9,-,N/A,,Clear,170,2013-08-18 03:35:00
10:55 PM,61.2,58.8,92,30.12,10.0,South,4.6,-,N/A,,Clear,170,2013-08-18 03:55:00
11:15 PM,59.9,57.9,93,30.13,10.0,South,6.9,-,N/A,,Clear,170,2013-08-18 04:15:00
11:35 PM,59.9,58.1,94,30.13,10.0,South,5.8,-,N/A,,Clear,170,2013-08-18 04:35:00
11:55 PM,59.7,57.6,93,30.13,10.0,South,5.8,-,N/A,,Clear,170,2013-08-18 04:55:00